Year,Month,Day,Hour,Minute,Value (Times are PST for temperature in C)
2009,08,19,00,00,18.20
2009,08,19,00,01,18.20
2009,08,19,00,02,18.10
2009,08,19,00,03,18.10
2009,08,19,00,04,18.10
2009,08,19,00,05,18.00
2009,08,19,00,06,18.00
2009,08,19,00,07,18.00
2009,08,19,00,08,17.90
2009,08,19,00,09,17.90
2009,08,19,00,10,17.90
2009,08,19,00,11,17.90
2009,08,19,00,12,17.90
2009,08,19,00,13,17.90
2009,08,19,00,14,17.80
2009,08,19,00,15,17.80
2009,08,19,00,16,17.80
2009,08,19,00,17,17.80
2009,08,19,00,18,17.80
2009,08,19,00,19,17.80
2009,08,19,00,20,17.80
2009,08,19,00,21,17.80
2009,08,19,00,22,17.80
2009,08,19,00,23,17.80
2009,08,19,00,24,17.80
2009,08,19,00,25,17.70
2009,08,19,00,26,17.70
2009,08,19,00,27,17.70
2009,08,19,00,28,17.70
2009,08,19,00,29,17.70
2009,08,19,00,30,17.70
2009,08,19,00,31,17.70
2009,08,19,00,32,17.70
2009,08,19,00,33,17.70
2009,08,19,00,34,17.70
2009,08,19,00,35,17.60
2009,08,19,00,36,17.60
2009,08,19,00,37,17.60
2009,08,19,00,38,17.50
2009,08,19,00,39,17.50
2009,08,19,00,40,17.40
2009,08,19,00,41,17.40
2009,08,19,00,42,17.40
2009,08,19,00,43,17.40
2009,08,19,00,44,17.30
2009,08,19,00,45,17.30
2009,08,19,00,46,17.30
2009,08,19,00,47,17.30
2009,08,19,00,48,17.30
2009,08,19,00,49,17.30
2009,08,19,00,50,17.30
2009,08,19,00,51,17.30
2009,08,19,00,52,17.30
2009,08,19,00,53,17.30
2009,08,19,00,54,17.30
2009,08,19,00,55,17.30
2009,08,19,00,56,17.30
2009,08,19,00,57,17.30
2009,08,19,00,58,17.30
2009,08,19,00,59,17.30
2009,08,19,01,00,17.30
2009,08,19,01,01,17.30
2009,08,19,01,02,17.30
2009,08,19,01,03,17.30
2009,08,19,01,04,17.30
2009,08,19,01,05,17.30
2009,08,19,01,06,17.30
2009,08,19,01,07,17.30
2009,08,19,01,08,17.30
2009,08,19,01,09,17.30
2009,08,19,01,10,17.30
2009,08,19,01,11,17.30
2009,08,19,01,12,17.30
2009,08,19,01,13,17.20
2009,08,19,01,14,17.20
2009,08,19,01,15,17.20
2009,08,19,01,16,17.20
2009,08,19,01,17,17.20
2009,08,19,01,18,17.20
2009,08,19,01,19,17.20
2009,08,19,01,20,17.20
2009,08,19,01,21,17.20
2009,08,19,01,22,17.20
2009,08,19,01,23,17.10
2009,08,19,01,24,17.10
2009,08,19,01,25,17.10
2009,08,19,01,26,17.10
2009,08,19,01,27,17.10
2009,08,19,01,28,17.10
2009,08,19,01,29,17.10
2009,08,19,01,30,17.00
2009,08,19,01,31,17.00
2009,08,19,01,32,17.00
2009,08,19,01,33,17.00
2009,08,19,01,34,16.90
2009,08,19,01,35,16.90
2009,08,19,01,36,16.90
2009,08,19,01,37,16.90
2009,08,19,01,38,16.90
2009,08,19,01,39,16.90
2009,08,19,01,40,16.80
2009,08,19,01,41,16.80
2009,08,19,01,42,16.80
2009,08,19,01,43,16.80
2009,08,19,01,44,16.80
2009,08,19,01,45,16.80
2009,08,19,01,46,16.80
2009,08,19,01,47,16.70
2009,08,19,01,48,16.70
2009,08,19,01,49,16.70
2009,08,19,01,50,16.70
2009,08,19,01,51,16.70
2009,08,19,01,52,16.70
2009,08,19,01,53,16.60
2009,08,19,01,54,16.60
2009,08,19,01,55,16.60
2009,08,19,01,56,16.60
2009,08,19,01,57,16.60
2009,08,19,01,58,16.60
2009,08,19,01,59,16.60
2009,08,19,02,00,16.60
2009,08,19,02,01,16.60
2009,08,19,02,02,16.50
2009,08,19,02,03,16.50
2009,08,19,02,04,16.50
2009,08,19,02,05,16.50
2009,08,19,02,06,16.50
2009,08,19,02,07,16.50
2009,08,19,02,08,16.50
2009,08,19,02,09,16.50
2009,08,19,02,10,16.50
2009,08,19,02,11,16.50
2009,08,19,02,12,16.50
2009,08,19,02,13,16.50
2009,08,19,02,14,16.40
2009,08,19,02,15,16.40
2009,08,19,02,16,16.40
2009,08,19,02,17,16.40
2009,08,19,02,18,16.40
2009,08,19,02,19,16.40
2009,08,19,02,20,16.40
2009,08,19,02,21,16.40
2009,08,19,02,22,16.30
2009,08,19,02,23,16.30
2009,08,19,02,24,16.30
2009,08,19,02,25,16.30
2009,08,19,02,26,16.30
2009,08,19,02,27,16.30
2009,08,19,02,28,16.30
2009,08,19,02,29,16.30
2009,08,19,02,30,16.30
2009,08,19,02,31,16.30
2009,08,19,02,32,16.30
2009,08,19,02,33,16.30
2009,08,19,02,34,16.30
2009,08,19,02,35,16.20
2009,08,19,02,36,16.20
2009,08,19,02,37,16.20
2009,08,19,02,38,16.20
2009,08,19,02,39,16.20
2009,08,19,02,40,16.20
2009,08,19,02,41,16.20
2009,08,19,02,42,16.20
2009,08,19,02,43,16.20
2009,08,19,02,44,16.20
2009,08,19,02,45,16.20
2009,08,19,02,46,16.20
2009,08,19,02,47,16.20
2009,08,19,02,48,16.20
2009,08,19,02,49,16.20
2009,08,19,02,50,16.20
2009,08,19,02,51,16.20
2009,08,19,02,52,16.10
2009,08,19,02,53,16.10
2009,08,19,02,54,16.10
2009,08,19,02,55,16.10
2009,08,19,02,56,16.10
2009,08,19,02,57,16.10
2009,08,19,02,58,16.10
2009,08,19,02,59,16.10
2009,08,19,03,00,16.00
2009,08,19,03,01,16.00
2009,08,19,03,02,15.90
2009,08,19,03,03,15.90
2009,08,19,03,04,15.90
2009,08,19,03,05,15.90
2009,08,19,03,06,15.90
2009,08,19,03,07,15.90
2009,08,19,03,08,15.90
2009,08,19,03,09,15.90
2009,08,19,03,10,15.80
2009,08,19,03,11,15.80
2009,08,19,03,12,15.80
2009,08,19,03,13,15.80
2009,08,19,03,14,15.80
2009,08,19,03,15,15.80
2009,08,19,03,16,15.80
2009,08,19,03,17,15.80
2009,08,19,03,18,15.80
2009,08,19,03,19,15.80
2009,08,19,03,20,15.80
2009,08,19,03,21,15.80
2009,08,19,03,22,15.80
2009,08,19,03,23,15.80
2009,08,19,03,24,15.70
2009,08,19,03,25,15.70
2009,08,19,03,26,15.70
2009,08,19,03,27,15.70
2009,08,19,03,28,15.70
2009,08,19,03,29,15.70
2009,08,19,03,30,15.70
2009,08,19,03,31,15.70
2009,08,19,03,32,15.70
2009,08,19,03,33,15.70
2009,08,19,03,34,15.70
2009,08,19,03,35,15.70
2009,08,19,03,36,15.80
2009,08,19,03,37,15.80
2009,08,19,03,38,15.80
2009,08,19,03,39,15.80
2009,08,19,03,40,15.80
2009,08,19,03,41,15.80
2009,08,19,03,42,15.80
2009,08,19,03,43,15.80
2009,08,19,03,44,15.80
2009,08,19,03,45,15.80
2009,08,19,03,46,15.80
2009,08,19,03,47,15.80
2009,08,19,03,48,15.80
2009,08,19,03,49,15.80
2009,08,19,03,50,15.80
2009,08,19,03,51,15.80
2009,08,19,03,52,15.80
2009,08,19,03,53,15.80
2009,08,19,03,54,15.80
2009,08,19,03,55,15.70
2009,08,19,03,56,15.70
2009,08,19,03,57,15.70
2009,08,19,03,58,15.70
2009,08,19,03,59,15.70
2009,08,19,04,00,15.70
2009,08,19,04,01,15.70
2009,08,19,04,02,15.70
2009,08,19,04,03,15.70
2009,08,19,04,04,15.70
2009,08,19,04,05,15.60
2009,08,19,04,06,15.60
2009,08,19,04,07,15.60
2009,08,19,04,08,15.60
2009,08,19,04,09,15.60
2009,08,19,04,10,15.60
2009,08,19,04,11,15.60
2009,08,19,04,12,15.60
2009,08,19,04,13,15.60
2009,08,19,04,14,15.60
2009,08,19,04,15,15.50
2009,08,19,04,16,15.50
2009,08,19,04,17,15.50
2009,08,19,04,18,15.50
2009,08,19,04,19,15.50
2009,08,19,04,20,15.50
2009,08,19,04,21,15.50
2009,08,19,04,22,15.50
2009,08,19,04,23,15.50
2009,08,19,04,24,15.50
2009,08,19,04,25,15.50
2009,08,19,04,26,15.50
2009,08,19,04,27,15.50
2009,08,19,04,28,15.50
2009,08,19,04,29,15.50
2009,08,19,04,30,15.50
2009,08,19,04,31,15.50
2009,08,19,04,32,15.40
2009,08,19,04,33,15.40
2009,08,19,04,34,15.40
2009,08,19,04,35,15.40
2009,08,19,04,36,15.40
2009,08,19,04,37,15.40
2009,08,19,04,38,15.30
2009,08,19,04,39,15.30
2009,08,19,04,40,15.30
2009,08,19,04,41,15.30
2009,08,19,04,42,15.30
2009,08,19,04,43,15.30
2009,08,19,04,44,15.20
2009,08,19,04,45,15.20
2009,08,19,04,46,15.20
2009,08,19,04,47,15.20
2009,08,19,04,48,15.20
2009,08,19,04,49,15.20
2009,08,19,04,50,15.20
2009,08,19,04,51,15.20
2009,08,19,04,52,15.20
2009,08,19,04,53,15.20
2009,08,19,04,54,15.20
2009,08,19,04,55,15.10
2009,08,19,04,56,15.10
2009,08,19,04,57,15.10
2009,08,19,04,58,15.10
2009,08,19,04,59,15.10
2009,08,19,05,00,15.10
2009,08,19,05,01,15.10
2009,08,19,05,02,15.00
2009,08,19,05,03,15.00
2009,08,19,05,04,15.00
2009,08,19,05,05,15.00
2009,08,19,05,06,15.00
2009,08,19,05,07,15.00
2009,08,19,05,08,15.00
2009,08,19,05,09,15.00
2009,08,19,05,10,15.00
2009,08,19,05,11,15.00
2009,08,19,05,12,15.00
2009,08,19,05,13,15.00
2009,08,19,05,14,15.00
2009,08,19,05,15,15.00
2009,08,19,05,16,15.00
2009,08,19,05,17,15.00
2009,08,19,05,18,15.00
2009,08,19,05,19,15.00
2009,08,19,05,20,15.00
2009,08,19,05,21,15.00
2009,08,19,05,22,15.00
2009,08,19,05,23,15.00
2009,08,19,05,24,15.00
2009,08,19,05,25,15.00
2009,08,19,05,26,15.00
2009,08,19,05,27,15.00
2009,08,19,05,28,15.00
2009,08,19,05,29,15.00
2009,08,19,05,30,15.00
2009,08,19,05,31,15.00
2009,08,19,05,32,15.00
2009,08,19,05,33,15.00
2009,08,19,05,34,15.00
2009,08,19,05,35,15.00
2009,08,19,05,36,15.00
2009,08,19,05,37,15.00
2009,08,19,05,38,15.00
2009,08,19,05,39,15.00
2009,08,19,05,40,15.00
2009,08,19,05,41,15.00
2009,08,19,05,42,15.00
2009,08,19,05,43,15.00
2009,08,19,05,44,15.00
2009,08,19,05,45,15.00
2009,08,19,05,46,15.00
2009,08,19,05,47,15.00
2009,08,19,05,48,15.00
2009,08,19,05,49,15.00
2009,08,19,05,50,15.00
2009,08,19,05,51,15.00
2009,08,19,05,52,15.00
2009,08,19,05,53,15.00
2009,08,19,05,54,15.00
2009,08,19,05,55,15.00
2009,08,19,05,56,15.00
2009,08,19,05,57,15.00
2009,08,19,05,58,15.00
2009,08,19,05,59,15.00
2009,08,19,06,00,15.00
2009,08,19,06,01,15.10
2009,08,19,06,02,15.10
2009,08,19,06,03,15.10
2009,08,19,06,04,15.10
2009,08,19,06,05,15.10
2009,08,19,06,06,15.10
2009,08,19,06,07,15.10
2009,08,19,06,08,15.10
2009,08,19,06,09,15.00
2009,08,19,06,10,15.00
2009,08,19,06,11,15.00
2009,08,19,06,12,15.00
2009,08,19,06,13,15.00
2009,08,19,06,14,15.00
2009,08,19,06,15,15.00
2009,08,19,06,16,15.00
2009,08,19,06,17,15.00
2009,08,19,06,18,15.00
2009,08,19,06,19,15.00
2009,08,19,06,20,15.00
2009,08,19,06,21,15.00
2009,08,19,06,22,15.00
2009,08,19,06,23,15.00
2009,08,19,06,24,15.00
2009,08,19,06,25,15.00
2009,08,19,06,26,15.00
2009,08,19,06,27,15.00
2009,08,19,06,28,15.00
2009,08,19,06,29,15.00
2009,08,19,06,30,15.00
2009,08,19,06,31,15.00
2009,08,19,06,32,15.00
2009,08,19,06,33,15.00
2009,08,19,06,34,15.00
2009,08,19,06,35,15.00
2009,08,19,06,36,15.00
2009,08,19,06,37,15.00
2009,08,19,06,38,14.90
2009,08,19,06,39,14.90
2009,08,19,06,40,14.90
2009,08,19,06,41,14.90
2009,08,19,06,42,14.90
2009,08,19,06,43,14.90
2009,08,19,06,44,14.90
2009,08,19,06,45,14.90
2009,08,19,06,46,14.90
2009,08,19,06,47,14.90
2009,08,19,06,48,14.90
2009,08,19,06,49,14.90
2009,08,19,06,50,14.90
2009,08,19,06,51,14.80
2009,08,19,06,52,14.80
2009,08,19,06,53,14.80
2009,08,19,06,54,14.90
2009,08,19,06,55,14.90
2009,08,19,06,56,14.90
2009,08,19,06,57,14.90
2009,08,19,06,58,14.90
2009,08,19,06,59,14.90
2009,08,19,07,00,14.90
2009,08,19,07,01,14.90
2009,08,19,07,02,14.90
2009,08,19,07,03,14.90
2009,08,19,07,04,14.90
2009,08,19,07,05,14.90
2009,08,19,07,06,14.90
2009,08,19,07,07,14.90
2009,08,19,07,08,14.90
2009,08,19,07,09,14.90
2009,08,19,07,10,14.90
2009,08,19,07,11,14.90
2009,08,19,07,12,14.90
2009,08,19,07,13,14.90
2009,08,19,07,14,15.00
2009,08,19,07,15,15.00
2009,08,19,07,16,15.00
2009,08,19,07,17,15.00
2009,08,19,07,18,15.00
2009,08,19,07,19,15.00
2009,08,19,07,20,15.00
2009,08,19,07,21,15.00
2009,08,19,07,22,15.00
2009,08,19,07,23,15.00
2009,08,19,07,24,15.00
2009,08,19,07,25,15.00
2009,08,19,07,26,15.00
2009,08,19,07,27,15.00
2009,08,19,07,28,15.00
2009,08,19,07,29,15.00
2009,08,19,07,30,15.00
2009,08,19,07,31,15.00
2009,08,19,07,32,15.00
2009,08,19,07,33,15.00
2009,08,19,07,34,15.00
2009,08,19,07,35,15.00
2009,08,19,07,36,15.00
2009,08,19,07,37,15.00
2009,08,19,07,38,15.00
2009,08,19,07,39,15.10
2009,08,19,07,40,15.10
2009,08,19,07,41,15.10
2009,08,19,07,42,15.20
2009,08,19,07,43,15.20
2009,08,19,07,44,15.20
2009,08,19,07,45,15.30
2009,08,19,07,46,15.30
2009,08,19,07,47,15.30
2009,08,19,07,48,15.30
2009,08,19,07,49,15.40
2009,08,19,07,50,15.40
2009,08,19,07,51,15.40
2009,08,19,07,52,15.40
2009,08,19,07,53,15.50
2009,08,19,07,54,15.50
2009,08,19,07,55,15.60
2009,08,19,07,56,15.60
2009,08,19,07,57,15.70
2009,08,19,07,58,15.70
2009,08,19,07,59,15.70
2009,08,19,08,00,15.80
2009,08,19,08,01,15.80
2009,08,19,08,02,15.80
2009,08,19,08,03,15.80
2009,08,19,08,04,15.90
2009,08,19,08,05,15.90
2009,08,19,08,06,15.90
2009,08,19,08,07,16.00
2009,08,19,08,08,16.00
2009,08,19,08,09,16.00
2009,08,19,08,10,16.10
2009,08,19,08,11,16.10
2009,08,19,08,12,16.10
2009,08,19,08,13,16.20
2009,08,19,08,14,16.20
2009,08,19,08,15,16.20
2009,08,19,08,16,16.20
2009,08,19,08,17,16.30
2009,08,19,08,18,16.30
2009,08,19,08,19,16.30
2009,08,19,08,20,16.40
2009,08,19,08,21,16.40
2009,08,19,08,22,16.40
2009,08,19,08,23,16.50
2009,08,19,08,24,16.50
2009,08,19,08,25,16.60
2009,08,19,08,26,16.60
2009,08,19,08,27,16.60
2009,08,19,08,28,16.70
2009,08,19,08,29,16.70
2009,08,19,08,30,16.80
2009,08,19,08,31,16.80
2009,08,19,08,32,16.80
2009,08,19,08,33,16.80
2009,08,19,08,34,16.90
2009,08,19,08,35,16.90
2009,08,19,08,36,16.90
2009,08,19,08,37,16.90
2009,08,19,08,38,17.00
2009,08,19,08,39,17.00
2009,08,19,08,40,17.00
2009,08,19,08,41,17.10
2009,08,19,08,42,17.10
2009,08,19,08,43,17.20
2009,08,19,08,44,17.20
2009,08,19,08,45,17.30
2009,08,19,08,46,17.30
2009,08,19,08,47,17.40
2009,08,19,08,48,17.50
2009,08,19,08,49,17.50
2009,08,19,08,50,17.60
2009,08,19,08,51,17.70
2009,08,19,08,52,17.70
2009,08,19,08,53,17.80
2009,08,19,08,54,17.90
2009,08,19,08,55,18.00
2009,08,19,08,56,18.00
2009,08,19,08,57,18.10
2009,08,19,08,58,18.20
2009,08,19,08,59,18.20
2009,08,19,09,00,18.30
2009,08,19,09,01,18.30
2009,08,19,09,02,18.40
2009,08,19,09,03,18.40
2009,08,19,09,04,18.50
2009,08,19,09,05,18.50
2009,08,19,09,06,18.60
2009,08,19,09,07,18.60
2009,08,19,09,08,18.60
2009,08,19,09,09,18.70
2009,08,19,09,10,18.70
2009,08,19,09,11,18.70
2009,08,19,09,12,18.80
2009,08,19,09,13,18.90
2009,08,19,09,14,18.90
2009,08,19,09,15,19.00
2009,08,19,09,16,19.00
2009,08,19,09,17,19.10
2009,08,19,09,18,19.10
2009,08,19,09,19,19.20
2009,08,19,09,20,19.20
2009,08,19,09,21,19.30
2009,08,19,09,22,19.30
2009,08,19,09,23,19.30
2009,08,19,09,24,19.40
2009,08,19,09,25,19.40
2009,08,19,09,26,19.40
2009,08,19,09,27,19.50
2009,08,19,09,28,19.50
2009,08,19,09,29,19.60
2009,08,19,09,30,19.60
2009,08,19,09,31,19.70
2009,08,19,09,32,19.70
2009,08,19,09,33,19.80
2009,08,19,09,34,19.80
2009,08,19,09,35,19.90
2009,08,19,09,36,19.90
2009,08,19,09,37,20.00
2009,08,19,09,38,20.00
2009,08,19,09,39,20.10
2009,08,19,09,40,20.10
2009,08,19,09,41,20.20
2009,08,19,09,42,20.20
2009,08,19,09,43,20.30
2009,08,19,09,44,20.30
2009,08,19,09,45,20.40
2009,08,19,09,46,20.50
2009,08,19,09,47,20.50
2009,08,19,09,48,20.60
2009,08,19,09,49,20.60
2009,08,19,09,50,20.70
2009,08,19,09,51,20.70
2009,08,19,09,52,20.80
2009,08,19,09,53,20.80
2009,08,19,09,54,20.80
2009,08,19,09,55,20.90
2009,08,19,09,56,20.90
2009,08,19,09,57,21.00
2009,08,19,09,58,21.00
2009,08,19,09,59,21.10
2009,08,19,10,00,21.10
2009,08,19,10,01,21.20
2009,08,19,10,02,21.20
2009,08,19,10,03,21.30
2009,08,19,10,04,21.30
2009,08,19,10,05,21.40
2009,08,19,10,06,21.50
2009,08,19,10,07,21.50
2009,08,19,10,08,21.60
2009,08,19,10,09,21.60
2009,08,19,10,10,21.70
2009,08,19,10,11,21.70
2009,08,19,10,12,21.70
2009,08,19,10,13,21.80
2009,08,19,10,14,21.80
2009,08,19,10,15,21.90
2009,08,19,10,16,21.90
2009,08,19,10,17,21.90
2009,08,19,10,18,21.90
2009,08,19,10,19,21.90
2009,08,19,10,20,21.90
2009,08,19,10,21,21.90
2009,08,19,10,22,21.90
2009,08,19,10,23,22.00
2009,08,19,10,24,22.10
2009,08,19,10,25,22.10
2009,08,19,10,26,22.20
2009,08,19,10,27,22.20
2009,08,19,10,28,22.30
2009,08,19,10,29,22.30
2009,08,19,10,30,22.30
2009,08,19,10,31,22.30
2009,08,19,10,32,22.30
2009,08,19,10,33,22.20
2009,08,19,10,34,22.20
2009,08,19,10,35,22.20
2009,08,19,10,36,22.20
2009,08,19,10,37,22.20
2009,08,19,10,38,22.30
2009,08,19,10,39,22.30
2009,08,19,10,40,22.30
2009,08,19,10,41,22.40
2009,08,19,10,42,22.50
2009,08,19,10,43,22.60
2009,08,19,10,44,22.60
2009,08,19,10,45,22.70
2009,08,19,10,46,22.70
2009,08,19,10,47,22.80
2009,08,19,10,48,22.80
2009,08,19,10,49,22.80
2009,08,19,10,50,22.90
2009,08,19,10,51,22.90
2009,08,19,10,52,22.90
2009,08,19,10,53,23.00
2009,08,19,10,54,23.00
2009,08,19,10,55,23.10
2009,08,19,10,56,23.20
2009,08,19,10,57,23.20
2009,08,19,10,58,23.30
2009,08,19,10,59,23.30
2009,08,19,11,00,23.40
2009,08,19,11,01,23.40
2009,08,19,11,02,23.50
2009,08,19,11,03,23.50
2009,08,19,11,04,23.60
2009,08,19,11,05,23.60
2009,08,19,11,06,23.60
2009,08,19,11,07,23.70
2009,08,19,11,08,23.70
2009,08,19,11,09,23.80
2009,08,19,11,10,23.80
2009,08,19,11,11,23.90
2009,08,19,11,12,23.90
2009,08,19,11,13,24.00
2009,08,19,11,14,24.10
2009,08,19,11,15,24.10
2009,08,19,11,16,24.20
2009,08,19,11,17,24.30
2009,08,19,11,18,24.40
2009,08,19,11,19,24.50
2009,08,19,11,20,24.60
2009,08,19,11,21,24.70
2009,08,19,11,22,24.80
2009,08,19,11,23,24.80
2009,08,19,11,24,24.80
2009,08,19,11,25,24.90
2009,08,19,11,26,25.00
2009,08,19,11,27,25.10
2009,08,19,11,28,25.20
2009,08,19,11,29,25.30
2009,08,19,11,30,25.30
2009,08,19,11,31,25.40
2009,08,19,11,32,25.40
2009,08,19,11,33,25.40
2009,08,19,11,34,25.40
2009,08,19,11,35,25.50
2009,08,19,11,36,25.50
2009,08,19,11,37,25.50
2009,08,19,11,38,25.40
2009,08,19,11,39,25.40
2009,08,19,11,40,25.40
2009,08,19,11,41,25.50
2009,08,19,11,42,25.50
2009,08,19,11,43,25.40
2009,08,19,11,44,25.40
2009,08,19,11,45,25.40
2009,08,19,11,46,25.50
2009,08,19,11,47,25.50
2009,08,19,11,48,25.50
2009,08,19,11,49,25.60
2009,08,19,11,50,25.50
2009,08,19,11,51,25.40
2009,08,19,11,52,25.40
2009,08,19,11,53,25.40
2009,08,19,11,54,25.40
2009,08,19,11,55,25.40
2009,08,19,11,56,25.50
2009,08,19,11,57,25.50
2009,08,19,11,58,25.50
2009,08,19,11,59,25.60
2009,08,19,12,00,25.70
2009,08,19,12,01,25.90
2009,08,19,12,02,25.90
2009,08,19,12,03,25.90
2009,08,19,12,04,26.00
2009,08,19,12,05,26.00
2009,08,19,12,06,26.00
2009,08,19,12,07,25.90
2009,08,19,12,08,25.90
2009,08,19,12,09,25.90
2009,08,19,12,10,25.90
2009,08,19,12,11,25.90
2009,08,19,12,12,25.90
2009,08,19,12,13,25.90
2009,08,19,12,14,25.90
2009,08,19,12,15,26.00
2009,08,19,12,16,26.00
2009,08,19,12,17,26.00
2009,08,19,12,18,26.00
2009,08,19,12,19,25.90
2009,08,19,12,20,25.90
2009,08,19,12,21,25.90
2009,08,19,12,22,26.00
2009,08,19,12,23,26.10
2009,08,19,12,24,26.20
2009,08,19,12,25,26.30
2009,08,19,12,26,26.30
2009,08,19,12,27,26.40
2009,08,19,12,28,26.50
2009,08,19,12,29,26.60
2009,08,19,12,30,26.60
2009,08,19,12,31,26.70
2009,08,19,12,32,26.80
2009,08,19,12,33,26.80
2009,08,19,12,34,26.80
2009,08,19,12,35,26.90
2009,08,19,12,36,26.90
2009,08,19,12,37,27.00
2009,08,19,12,38,27.10
2009,08,19,12,39,27.20
2009,08,19,12,40,27.20
2009,08,19,12,41,27.20
2009,08,19,12,42,27.30
2009,08,19,12,43,27.30
2009,08,19,12,44,27.40
2009,08,19,12,45,27.50
2009,08,19,12,46,27.60
2009,08,19,12,47,27.70
2009,08,19,12,48,27.70
2009,08,19,12,49,27.70
2009,08,19,12,50,27.60
2009,08,19,12,51,27.60
2009,08,19,12,52,27.60
2009,08,19,12,53,27.60
2009,08,19,12,54,27.70
2009,08,19,12,55,27.70
2009,08,19,12,56,27.70
2009,08,19,12,57,27.70
2009,08,19,12,58,27.70
2009,08,19,12,59,27.70
2009,08,19,13,00,27.70
2009,08,19,13,01,27.70
2009,08,19,13,02,27.70
2009,08,19,13,03,27.70
2009,08,19,13,04,27.70
2009,08,19,13,05,27.70
2009,08,19,13,06,27.70
2009,08,19,13,07,27.80
2009,08,19,13,08,27.80
2009,08,19,13,09,27.80
2009,08,19,13,10,27.80
2009,08,19,13,11,27.90
2009,08,19,13,12,28.00
2009,08,19,13,13,28.00
2009,08,19,13,14,28.00
2009,08,19,13,15,28.00
2009,08,19,13,16,28.00
2009,08,19,13,17,27.90
2009,08,19,13,18,27.90
2009,08,19,13,19,28.00
2009,08,19,13,20,28.00
2009,08,19,13,21,28.10
2009,08,19,13,22,28.20
2009,08,19,13,23,28.20
2009,08,19,13,24,28.30
2009,08,19,13,25,28.30
2009,08,19,13,26,28.30
2009,08,19,13,27,28.30
2009,08,19,13,28,28.40
2009,08,19,13,29,28.40
2009,08,19,13,30,28.40
2009,08,19,13,31,28.50
2009,08,19,13,32,28.50
2009,08,19,13,33,28.60
2009,08,19,13,34,28.60
2009,08,19,13,35,28.70
2009,08,19,13,36,28.70
2009,08,19,13,37,28.80
2009,08,19,13,38,28.90
2009,08,19,13,39,28.90
2009,08,19,13,40,28.90
2009,08,19,13,41,29.00
2009,08,19,13,42,29.00
2009,08,19,13,43,29.10
2009,08,19,13,44,29.10
2009,08,19,13,45,29.10
2009,08,19,13,46,29.10
2009,08,19,13,47,29.10
2009,08,19,13,48,29.10
2009,08,19,13,49,29.20
2009,08,19,13,50,29.20
2009,08,19,13,51,29.30
2009,08,19,13,52,29.30
2009,08,19,13,53,29.40
2009,08,19,13,54,29.40
2009,08,19,13,55,29.50
2009,08,19,13,56,29.60
2009,08,19,13,57,29.60
2009,08,19,13,58,29.60
2009,08,19,13,59,29.60
2009,08,19,14,00,29.60
2009,08,19,14,01,29.70
2009,08,19,14,02,29.70
2009,08,19,14,03,29.70
2009,08,19,14,04,29.60
2009,08,19,14,05,29.60
2009,08,19,14,06,29.60
2009,08,19,14,07,29.60
2009,08,19,14,08,29.60
2009,08,19,14,09,29.60
2009,08,19,14,10,29.50
2009,08,19,14,11,29.40
2009,08,19,14,12,29.30
2009,08,19,14,13,29.30
2009,08,19,14,14,29.30
2009,08,19,14,15,29.30
2009,08,19,14,16,29.30
2009,08,19,14,17,29.40
2009,08,19,14,18,29.40
2009,08,19,14,19,29.50
2009,08,19,14,20,29.60
2009,08,19,14,21,29.70
2009,08,19,14,22,29.80
2009,08,19,14,23,29.80
2009,08,19,14,24,29.80
2009,08,19,14,25,29.80
2009,08,19,14,26,29.80
2009,08,19,14,27,29.80
2009,08,19,14,28,29.80
2009,08,19,14,29,29.80
2009,08,19,14,30,29.90
2009,08,19,14,31,29.90
2009,08,19,14,32,29.90
2009,08,19,14,33,29.90
2009,08,19,14,34,29.90
2009,08,19,14,35,29.90
2009,08,19,14,36,29.90
2009,08,19,14,37,29.90
2009,08,19,14,38,29.90
2009,08,19,14,39,29.90
2009,08,19,14,40,29.90
2009,08,19,14,41,29.90
2009,08,19,14,42,30.00
2009,08,19,14,43,30.00
2009,08,19,14,44,30.00
2009,08,19,14,45,30.00
2009,08,19,14,46,30.10
2009,08,19,14,47,30.10
2009,08,19,14,48,30.10
2009,08,19,14,49,30.10
2009,08,19,14,50,30.20
2009,08,19,14,51,30.20
2009,08,19,14,52,30.30
2009,08,19,14,53,30.30
2009,08,19,14,54,30.30
2009,08,19,14,55,30.30
2009,08,19,14,56,30.30
2009,08,19,14,57,30.30
2009,08,19,14,58,30.40
2009,08,19,14,59,30.40
2009,08,19,15,00,30.40
2009,08,19,15,01,30.40
2009,08,19,15,02,30.40
2009,08,19,15,03,30.40
2009,08,19,15,04,30.50
2009,08,19,15,05,30.50
2009,08,19,15,06,30.50
2009,08,19,15,07,30.60
2009,08,19,15,08,30.60
2009,08,19,15,09,30.60
2009,08,19,15,10,30.60
2009,08,19,15,11,30.60
2009,08,19,15,12,30.60
2009,08,19,15,13,30.60
2009,08,19,15,14,30.60
2009,08,19,15,15,30.60
2009,08,19,15,16,30.60
2009,08,19,15,17,30.60
2009,08,19,15,18,30.60
2009,08,19,15,19,30.70
2009,08,19,15,20,30.70
2009,08,19,15,21,30.70
2009,08,19,15,22,30.60
2009,08,19,15,23,30.60
2009,08,19,15,24,30.50
2009,08,19,15,25,30.40
2009,08,19,15,26,30.40
2009,08,19,15,27,30.30
2009,08,19,15,28,30.30
2009,08,19,15,29,30.20
2009,08,19,15,30,30.20
2009,08,19,15,31,30.20
2009,08,19,15,32,30.20
2009,08,19,15,33,30.20
2009,08,19,15,34,30.30
2009,08,19,15,35,30.30
2009,08,19,15,36,30.30
2009,08,19,15,37,30.20
2009,08,19,15,38,30.20
2009,08,19,15,39,30.20
2009,08,19,15,40,30.20
2009,08,19,15,41,30.20
2009,08,19,15,42,30.20
2009,08,19,15,43,30.10
2009,08,19,15,44,30.00
2009,08,19,15,45,30.00
2009,08,19,15,46,29.90
2009,08,19,15,47,29.90
2009,08,19,15,48,29.90
2009,08,19,15,49,30.00
2009,08,19,15,50,30.10
2009,08,19,15,51,30.10
2009,08,19,15,52,30.20
2009,08,19,15,53,30.20
2009,08,19,15,54,30.30
2009,08,19,15,55,30.40
2009,08,19,15,56,30.50
2009,08,19,15,57,30.60
2009,08,19,15,58,30.60
2009,08,19,15,59,30.60
2009,08,19,16,00,30.60
2009,08,19,16,01,30.60
2009,08,19,16,02,30.60
2009,08,19,16,03,30.60
2009,08,19,16,04,30.70
2009,08,19,16,05,30.70
2009,08,19,16,06,30.80
2009,08,19,16,07,30.90
2009,08,19,16,08,30.90
2009,08,19,16,09,31.00
2009,08,19,16,10,31.10
2009,08,19,16,11,31.20
2009,08,19,16,12,31.20
2009,08,19,16,13,31.30
2009,08,19,16,14,31.30
2009,08,19,16,15,31.30
2009,08,19,16,16,31.40
2009,08,19,16,17,31.30
2009,08,19,16,18,31.30
2009,08,19,16,19,31.20
2009,08,19,16,20,31.20
2009,08,19,16,21,31.30
2009,08,19,16,22,31.30
2009,08,19,16,23,31.30
2009,08,19,16,24,31.30
2009,08,19,16,25,31.30
2009,08,19,16,26,31.30
2009,08,19,16,27,31.30
2009,08,19,16,28,31.30
2009,08,19,16,29,31.30
2009,08,19,16,30,31.40
2009,08,19,16,31,31.50
2009,08,19,16,32,31.60
2009,08,19,16,33,31.60
2009,08,19,16,34,31.60
2009,08,19,16,35,31.70
2009,08,19,16,36,31.70
2009,08,19,16,37,31.70
2009,08,19,16,38,31.80
2009,08,19,16,39,31.80
2009,08,19,16,40,31.80
2009,08,19,16,41,31.80
2009,08,19,16,42,31.80
2009,08,19,16,43,31.90
2009,08,19,16,44,31.90
2009,08,19,16,45,31.80
2009,08,19,16,46,31.70
2009,08,19,16,47,31.60
2009,08,19,16,48,31.40
2009,08,19,16,49,31.30
2009,08,19,16,50,31.30
2009,08,19,16,51,31.30
2009,08,19,16,52,31.40
2009,08,19,16,53,31.40
2009,08,19,16,54,31.50
2009,08,19,16,55,31.50
2009,08,19,16,56,31.60
2009,08,19,16,57,31.60
2009,08,19,16,58,31.60
2009,08,19,16,59,31.60
2009,08,19,17,00,31.60
2009,08,19,17,01,31.70
2009,08,19,17,02,31.70
2009,08,19,17,03,31.80
2009,08,19,17,04,31.90
2009,08,19,17,05,32.00
2009,08,19,17,06,32.10
2009,08,19,17,07,32.10
2009,08,19,17,08,32.00
2009,08,19,17,09,31.90
2009,08,19,17,10,31.80
2009,08,19,17,11,31.70
2009,08,19,17,12,31.70
2009,08,19,17,13,31.60
2009,08,19,17,14,31.50
2009,08,19,17,15,31.50
2009,08,19,17,16,31.40
2009,08,19,17,17,31.40
2009,08,19,17,18,31.40
2009,08,19,17,19,31.30